Location: Unspecified
(0.0000°N, 0.0000°E)
Time: 00:04:34
(UTC+00:00)

LightSail 2 - Pass Details

Date: 14 February 2020
Orbit: 698 x 724 km, 24.0° (Epoch: 26 February)

Event Time Altitude Azimuth Distance (km) Brightness Sun altitude
Exits shadow 04:47:36 12° 353° (N) 2,064 7.3 -21.1°
Drops below altitude 10° 04:48:43 10° 6° (N) 2,194 7.6 -20.8°
Sets 04:52:40 0° 35° (NE) 3,113 8.7 -19.8°
